SCP
-0 -0 -0 -0 -0 -0 -0 -0 -0 -0 -0 -0 -0 -0 -0 -0 -0 -0 -0 -0 -0 -0 -0 -0 -0 -0 -0 0 0 0 0 0 0
0 -0 -0 -0 -0 -0 -0 -0 0 0 0 -0 -0 -0 0 0 0 -0 -0 0 -0 -0 -0 -0 -0 -0 0 0 0 0 0 0 0
0 0 0 -0 -0 -0 -0 -0 0 0 0 0 0 0 0 0 0 0 0 -0 -0 -0 -0 0 0 0 0 0 0 0 0 0 0
0 0 0 0 0 0 0 0 0 0 0 0 0 0 0 0 0 0 0 0 0 0 0 0 0 0 0 0 0 0 0 0 0
0 0 0 0 0 0 0 0 0 0 0 0 0 0 0 0 0 0 -0 0 0 0 0 0 0 0 0 0 0 0 0 0 0
0 0 0 0 0 0 0 0 0 0 0 0 0 0 0 0 0 0 0 0 0 0 0 0 0 0 0 0 0 0 0 0 0
0 0 0 0 0 0 0 0 0 0 0 0 0 0 0 0 0 0 0 0 0 0 0 0 0 0 0 0 0 0 0 0 0
0 0 0 0 0 0 0 0 0 0 0 0 0 0 0 0 0 0 0 0 0 0 0 0 0 0 0 0 0 0 0 0 0
0 0 0 0 0 0 0 0 0 0 0 0 0 0 0 0 0 0 0 0 0 0 0 0 0 0 0 0 0 0 0 0 0
0 0 0 0 0 0 0 0 0 0 0 0 0 0 0 0 0 0 -0 0 0 0 0 0 0 0 0 0 0 0 0 0 0
0 0 0 0 0 0 0 0 0 0 0 0 0 0 0 0 0 0 0 0 0 0 0 0 0 0 0 0 0 0 0 0 0
0 0 0 0 0 0 0 0 0 0 0 0 0 0 0 0 0 0 0 0 0 0 0 0 0 0 0 0 0 0 0 0 0
0 0 0 0 0 0 0 0 0 0 0 0 0 0 0 0 0 0 0 0 0 0 0 0 0 0 0 0 0 0 0 0 0
0 0 0 0 0 0 0 0 0 0 0 0 0 0 0 0 0 0 0 0 0 0 0 0 0 0 0 0 0 0 0 0 0
0 0 0 0 0 0 0 0 0 0 0 0 0 0 0 0 0 0 0 0 0 0 0 0 0 0 0 0 0 0 0 0 0
0 0 0 0 0 0 0 0 0 0 0 0 0 0 0 0 0 0 0 0 0 0 0 0 0 0 0 0 0 0 0 0 0
0 0 0 0 0 0 0 0 0 0 0 0 0 0 0 0 0 0 0 0 0 0 0 0 0 0 0 0 0 0 0 0 0
0 0 0 0 0 0 0 0 0 0 0 0 0 0 0 0 0 0 0 0 0 0 0 0 0 0 0 0 0 0 0 0 0
0 0 0 0 0 0 0 0 0 0 0 0 0 0 0 0 0 0 0 0 0 0 0 0 0 0 0 0 0 0 0 0 0
0 0 0 0 0 0 0 0 0 0 0 0 0 0 0 0 0 0 0 0 0 0 0 0 0 0 0 0 0 0 0 0 0
Wind_Speed_500mb
34 32 36 33 36 38 41 42 44 41 35 27 20 20 17 15 13 13 14 15 18 18 20 21 22 22 23 24 23 23 23 23 21
38 35 34 34 38 38 38 38 39 37 32 27 21 18 18 14 14 15 14 15 16 17 18 18 19 20 21 21 21 21 22 21 20
36 37 37 38 39 38 37 36 35 35 29 23 17 18 18 17 16 14 13 14 14 15 15 16 17 19 19 19 19 20 20 19 19
41 40 37 39 40 39 36 34 32 30 26 22 16 12 13 14 15 14 11 11 11 12 12 14 16 19 18 19 19 20 18 19 19
47 41 38 40 40 40 36 32 29 27 24 21 16 10 9 12 10 10 9 8 8 9 10 12 14 16 16 17 18 18 17 17 17
48 46 43 42 40 36 33 30 28 25 23 21 18 12 7 8 8 5 6 4 5 6 7 9 11 12 11 13 14 16 15 17 19
52 50 52 43 40 38 33 29 28 26 24 23 21 15 9 5 3 3 4 3 4 5 6 7 7 9 6 10 11 12 13 15 17
62 54 51 49 45 43 39 33 28 24 22 22 23 18 12 8 2 3 4 4 5 7 6 7 9 8 6 9 8 8 8 11 15
67 61 55 53 52 47 42 34 28 26 25 23 24 17 13 13 7 1 6 7 6 10 8 7 11 13 10 11 10 9 10 11 13
73 66 61 58 58 48 41 35 31 28 25 25 24 19 11 11 11 7 7 10 10 10 9 8 10 14 16 16 16 13 13 11 10
78 74 70 63 53 46 39 35 32 27 24 27 25 20 18 15 13 10 8 11 17 12 7 8 13 18 21 22 21 17 15 11 9
79 74 67 55 51 45 39 37 33 30 27 28 25 22 21 21 15 10 14 15 18 11 17 16 21 27 26 23 26 20 16 12 12
65 64 59 56 52 50 46 40 35 32 30 29 27 25 21 23 25 22 22 22 19 21 25 31 35 32 28 26 26 18 15 14 15
62 62 58 57 55 52 46 41 33 33 36 31 27 27 29 21 24 29 29 27 30 29 33 37 40 28 23 18 20 21 18 17 18
61 59 56 59 56 51 46 42 40 41 36 33 33 33 30 29 33 33 32 30 29 37 40 45 30 23 13 11 21 22 19 19 19
64 59 61 59 57 54 48 45 45 44 35 32 36 35 28 31 37 34 38 39 41 42 43 30 23 15 13 21 24 19 20 21 27
68 64 66 61 59 54 50 50 51 43 41 39 34 34 38 40 45 41 39 42 37 34 29 24 17 15 13 15 20 24 25 28 30
69 70 70 65 61 57 55 52 51 51 47 45 37 21 24 42 48 47 44 49 43 28 20 18 17 17 18 17 20 23 26 31 26
69 65 63 64 64 62 57 57 55 51 45 50 54 52 24 25 22 48 54 47 42 29 26 23 19 19 20 22 21 21 25 29 25
65 61 63 66 68 62 64 59 44 43 46 44 42 45 51 55 47 35 49 47 44 38 32 27 26 26 24 23 24 26 27 28 22
Wind_Direction_500mb
166 166 158 153 145 140 138 136 139 141 138 134 131 126 119 111 102 101 99 90 82 75 68 64 59 56 51 47 44 43 44 45 44
179 175 167 161 154 152 147 145 147 152 149 147 150 139 127 113 110 103 94 87 80 73 67 61 56 49 44 42 40 40 42 42 43
185 180 174 166 161 158 153 150 150 152 152 148 146 133 125 114 110 101 96 87 79 72 65 58 50 44 41 40 37 39 41 45 45
188 181 179 173 168 163 158 155 153 154 154 151 148 133 118 108 102 94 89 83 77 67 56 50 45 44 43 39 44 46 43 40 38
189 185 180 177 177 169 165 161 160 159 159 161 156 154 132 124 94 81 71 63 63 58 50 44 42 42 45 51 42 34 29 28 25
183 191 186 183 180 176 175 171 165 162 161 166 166 168 159 139 118 77 58 24 25 30 30 32 33 35 46 42 32 25 23 25 26
188 191 188 184 185 184 182 179 175 173 170 171 174 178 197 177 93 13 345 327 320 329 345 357 6 14 27 21 13 22 20 20 19
192 194 184 185 188 189 187 186 183 181 180 180 182 187 205 214 157 346 316 310 298 294 310 324 331 344 327 344 341 353 357 2 0
195 199 188 193 189 194 194 192 193 195 193 189 186 185 212 229 217 228 291 319 306 294 298 303 310 326 323 317 322 318 329 334 344
197 198 192 196 195 193 192 196 201 205 203 199 194 191 185 205 221 224 308 296 324 304 288 276 289 304 312 312 305 298 310 311 322
200 201 197 198 196 195 196 202 204 206 211 208 200 196 188 218 240 256 283 300 327 313 281 272 291 298 292 292 294 289 296 289 300
204 202 201 200 197 196 195 199 203 204 206 201 206 207 208 218 230 248 253 268 298 291 272 283 301 298 284 285 285 278 280 273 280
204 203 203 200 198 197 199 202 207 209 209 208 216 214 219 220 239 243 243 245 274 268 265 282 298 294 281 272 263 261 262 259 277
204 206 209 201 198 200 203 207 212 213 215 219 220 221 218 221 237 237 244 259 270 263 272 285 295 286 280 259 242 245 251 255 269
204 209 205 200 202 206 208 214 219 219 220 225 229 213 222 224 238 242 258 270 268 270 277 289 282 282 257 225 224 244 251 260 282
207 210 206 205 207 210 212 216 216 216 213 216 219 219 234 219 234 243 256 262 266 276 280 270 272 279 262 228 227 252 263 271 282
213 216 211 211 212 214 212 210 212 212 209 212 215 223 227 228 242 248 254 257 267 270 269 275 275 268 264 231 238 259 269 278 284
218 216 214 212 214 211 207 210 211 209 211 216 214 212 219 222 235 240 246 250 257 255 258 283 285 283 281 267 259 259 252 263 277
218 214 214 216 215 216 216 213 213 211 217 215 219 228 227 206 221 231 227 232 242 241 265 274 283 279 276 273 275 272 263 268 271
211 213 216 213 218 221 227 225 232 235 233 237 241 238 239 236 244 220 215 220 232 236 260 261 267 273 274 275 275 272 265 265 266
Wind_Speed_850mb
34 32 36 33 36 38 41 42 44 41 35 27 20 20 17 15 13 13 14 15 18 18 20 21 22 22 23 24 23 23 23 23 21
38 35 34 34 38 38 38 38 39 37 32 27 21 18 18 14 14 15 14 15 16 17 18 18 19 20 21 21 21 21 22 21 20
36 37 37 38 39 38 37 36 35 35 29 23 17 18 18 17 16 14 13 14 14 15 15 16 17 19 19 19 19 20 20 19 19
41 40 37 39 40 39 36 34 32 30 26 22 16 12 13 14 15 14 11 11 11 12 12 14 16 19 18 19 19 20 18 19 19
47 41 38 40 40 40 36 32 29 27 24 21 16 10 9 12 10 10 9 8 8 9 10 12 14 16 16 17 18 18 17 17 17
48 46 43 42 40 36 33 30 28 25 23 21 18 12 7 8 8 5 6 4 5 6 7 9 11 12 11 13 14 16 15 17 19
52 50 52 43 40 38 33 29 28 26 24 23 21 15 9 5 3 3 4 3 4 5 6 7 7 9 6 10 11 12 13 15 17
62 54 51 49 45 43 39 33 28 24 22 22 23 18 12 8 2 3 4 4 5 7 6 7 9 8 6 9 8 8 8 11 15
67 61 55 53 52 47 42 34 28 26 25 23 24 17 13 13 7 1 6 7 6 10 8 7 11 13 10 11 10 9 10 11 13
73 66 61 58 58 48 41 35 31 28 25 25 24 19 11 11 11 7 7 10 10 10 9 8 10 14 16 16 16 13 13 11 10
78 74 70 63 53 46 39 35 32 27 24 27 25 20 18 15 13 10 8 11 17 12 7 8 13 18 21 22 21 17 15 11 9
79 74 67 55 51 45 39 37 33 30 27 28 25 22 21 21 15 10 14 15 18 11 17 16 21 27 26 23 26 20 16 12 12
65 64 59 56 52 50 46 40 35 32 30 29 27 25 21 23 25 22 22 22 19 21 25 31 35 32 28 26 26 18 15 14 15
62 62 58 57 55 52 46 41 33 33 36 31 27 27 29 21 24 29 29 27 30 29 33 37 40 28 23 18 20 21 18 17 18
61 59 56 59 56 51 46 42 40 41 36 33 33 33 30 29 33 33 32 30 29 37 40 45 30 23 13 11 21 22 19 19 19
64 59 61 59 57 54 48 45 45 44 35 32 36 35 28 31 37 34 38 39 41 42 43 30 23 15 13 21 24 19 20 21 27
68 64 66 61 59 54 50 50 51 43 41 39 34 34 38 40 45 41 39 42 37 34 29 24 17 15 13 15 20 24 25 28 30
69 70 70 65 61 57 55 52 51 51 47 45 37 21 24 42 48 47 44 49 43 28 20 18 17 17 18 17 20 23 26 31 26
69 65 63 64 64 62 57 57 55 51 45 50 54 52 24 25 22 48 54 47 42 29 26 23 19 19 20 22 21 21 25 29 25
65 61 63 66 68 62 64 59 44 43 46 44 42 45 51 55 47 35 49 47 44 38 32 27 26 26 24 23 24 26 27 28 22
Wind_Direction_850mb
166 166 158 153 145 140 138 136 139 141 138 134 131 126 119 111 102 101 99 90 82 75 68 64 59 56 51 47 44 43 44 45 44
179 175 167 161 154 152 147 145 147 152 149 147 150 139 127 113 110 103 94 87 80 73 67 61 56 49 44 42 40 40 42 42 43
185 180 174 166 161 158 153 150 150 152 152 148 146 133 125 114 110 101 96 87 79 72 65 58 50 44 41 40 37 39 41 45 45
188 181 179 173 168 163 158 155 153 154 154 151 148 133 118 108 102 94 89 83 77 67 56 50 45 44 43 39 44 46 43 40 38
189 185 180 177 177 169 165 161 160 159 159 161 156 154 132 124 94 81 71 63 63 58 50 44 42 42 45 51 42 34 29 28 25
183 191 186 183 180 176 175 171 165 162 161 166 166 168 159 139 118 77 58 24 25 30 30 32 33 35 46 42 32 25 23 25 26
188 191 188 184 185 184 182 179 175 173 170 171 174 178 197 177 93 13 345 327 320 329 345 357 6 14 27 21 13 22 20 20 19
192 194 184 185 188 189 187 186 183 181 180 180 182 187 205 214 157 346 316 310 298 294 310 324 331 344 327 344 341 353 357 2 0
195 199 188 193 189 194 194 192 193 195 193 189 186 185 212 229 217 228 291 319 306 294 298 303 310 326 323 317 322 318 329 334 344
197 198 192 196 195 193 192 196 201 205 203 199 194 191 185 205 221 224 308 296 324 304 288 276 289 304 312 312 305 298 310 311 322
200 201 197 198 196 195 196 202 204 206 211 208 200 196 188 218 240 256 283 300 327 313 281 272 291 298 292 292 294 289 296 289 300
204 202 201 200 197 196 195 199 203 204 206 201 206 207 208 218 230 248 253 268 298 291 272 283 301 298 284 285 285 278 280 273 280
204 203 203 200 198 197 199 202 207 209 209 208 216 214 219 220 239 243 243 245 274 268 265 282 298 294 281 272 263 261 262 259 277
204 206 209 201 198 200 203 207 212 213 215 219 220 221 218 221 237 237 244 259 270 263 272 285 295 286 280 259 242 245 251 255 269
204 209 205 200 202 206 208 214 219 219 220 225 229 213 222 224 238 242 258 270 268 270 277 289 282 282 257 225 224 244 251 260 282
207 210 206 205 207 210 212 216 216 216 213 216 219 219 234 219 234 243 256 262 266 276 280 270 272 279 262 228 227 252 263 271 282
213 216 211 211 212 214 212 210 212 212 209 212 215 223 227 228 242 248 254 257 267 270 269 275 275 268 264 231 238 259 269 278 284
218 216 214 212 214 211 207 210 211 209 211 216 214 212 219 222 235 240 246 250 257 255 258 283 285 283 281 267 259 259 252 263 277
218 214 214 216 215 216 216 213 213 211 217 215 219 228 227 206 221 231 227 232 242 241 265 274 283 279 276 273 275 272 263 268 271
211 213 216 213 218 221 227 225 232 235 233 237 241 238 239 236 244 220 215 220 232 236 260 261 267 273 274 275 275 272 265 265 266